Location: Saint-Usage
(47.1052°N, 5.2587°E)
Time: 04:07:18
(UTC+02:00)

Nauka - Pass Details

Date: 29 September 2021
Orbit: 417 x 423 km, 51.6° (Epoch: 26 October)

Event Time Altitude Azimuth Distance (km) Brightness Sun altitude
Rises 21:49:57 0° 294° (WNW) 2,367 ? -25.3°
Reaches altitude 10° 21:52:03 10° 292° (WNW) 1,502 ? -25.6°
Enters shadow 21:53:51 29° 284° (WNW) 810 ? -25.9°
